Flag for American Samoa Weather past 2 weeks in Pago Pago, American Samoa

Now
77 °F

Overcast.


Feels Like: 79 °F
Forecast: 75 / 78 °F
Wind: 15 mph from South

Location: Pago Pago / Int. Airp.

Current Time: Jul 25, 2014 at 8:20:34 PM

Latest Report: Jul 25, 2014 at 7:57 PM


Visibility: 10 mi

Pressure: 29.90 "Hg

Humidity: 71%

Dew point: 67 °F

Location of Pago PagoLocation

Historic Weather in Pago Pago — Graph

°F

Pago Pago temperature yesterday

Maximum temperature yesterday: 82 °F (at 1:53 PM)
Minimum temperature yesterday: 76 °F (at 11:50 PM)
Average temperature yesterday: 79 °F

Past Weeks' High & Low Weather Summary

 TemperatureHumidityPressure
High87 °F (Jul 19, 1:52 PM)100% (Jul 17, 5:58 AM)29.95 "Hg (Jul 17, 5:58 AM)
Low66 °F (Jul 12, 4:54 AM)51% (Jul 12, 10:54 AM)29.75 "Hg (Jul 22, 3:51 PM)
Average79 °F79%29.86 "Hg
* Reported Jul 10 6:50 PM — Jul 25 6:59 PM, Pago Pago, Weather by CustomWeather, © 2014

Note: Actual official high and low records may vary slightly from our data, if they occured in-between our weather recording intervals... More about our weather records

Advertising

Pago Pago weather history for previous 24 hours

 ConditionsComfort  
Time TempWeatherWind HumidityBarometerVisibility
6:59 PM
Jul 25
77 °FMostly cloudy.16 mph69%29.88 "Hg10 mi
5:50 PM77 °FMore clouds than sun.17 mph69%29.86 "Hg11 mi
4:50 PM77 °FOvercast.15 mph70%29.85 "Hg11 mi
3:50 PM77 °FMore clouds than sun.15 mph73%29.84 "Hg11 mi
2:53 PM78 °FCloudy.15 mph72%29.84 "Hg11 mi
1:57 PM77 °FCloudy.20 mph75%29.86 "Hg11 mi
12:50 PM78 °FCloudy.16 mph73%29.88 "Hg11 mi
11:54 AM78 °FCloudy.16 mph71%29.90 "Hg11 mi
8:55 AM77 °FLight rain. Cloudy.18 mph78%29.93 "Hg11 mi
7:51 AM77 °FCloudy.17 mph79%29.90 "Hg12 mi
6:50 AM77 °FCloudy.17 mph79%29.88 "Hg12 mi
5:53 AM77 °FOvercast.14 mph83%29.86 "Hg10 mi
2:50 AM75 °FSprinkles. Overcast.9 mph89%29.88 "Hg7 mi
1:53 AM77 °FOvercast.15 mph83%29.88 "Hg10 mi
12:50 AM78 °FOvercast.14 mph79%29.90 "Hg10 mi
11:50 PM
Jul 24
76 °FOvercast.15 mph87%29.91 "Hg10 mi
10:51 PM78 °FOvercast.16 mph82%29.91 "Hg10 mi
9:50 PM77 °FPartly cloudy.15 mph85%29.92 "Hg10 mi
8:50 PM77 °FSprinkles. Overcast.17 mph86%29.91 "Hg8 mi
Weather by CustomWeather, © 2014

See weather overviewHow to use our weather pages